Fullerton, CA

3:53 PM PDT on June 27, 2017 (GMT -0700)
Fullerton Municipal

Weather History for KFUL - September, 2011

Change the Weather History Date:

Saturday, September 24, 2011

  Actual Average Record
Temperature  
Mean Temperature 71 °F 72 °F  
Max Temperature 75 °F 82 °F 97 °F (2010)
Min Temperature 66 °F 62 °F 56 °F (2010)
Degree Days  
Heating Degree Days 0 0  
Month to date heating degree days 0 0  
Since 1 July heating degree days 0 0  
Cooling Degree Days 6 7  
Month to date cooling degree days 222 216  
Year to date cooling degree days 979 1079  
Growing Degree Days 20 (Base 50)    
Moisture  
Dew Point 60 °F    
Average Humidity 70    
Maximum Humidity 81    
Minimum Humidity 58    
Precipitation  
Precipitation 0.00 in 0.02 in 0.14 in (1976)
Month to date precipitation 0.06 0.16  
Year to date precipitation 5.63 9.90  
Since 1 July precipitation 0.06  
Snow  
Snow 0.00 in - - ()
Month to date snowfall 0.0  
Year to date snowfall 0.0  
Snow Depth 0.00 in    
Sea Level Pressure  
Sea Level Pressure 29.94 in    
Wind  
Wind Speed 2 mph (SSW)    
Max Wind Speed 9 mph    
Max Gust Speed 13 mph    
Visibility 9 miles    
Events      
T = Trace of Precipitation, MM = Missing Value Source: NWS Daily Summary

Daily Weather History Graph

Daily Weather History Graph

Search for Another Location

Airport or City:

Trip Planner

Search our weather history database for the weather conditions in past years. The results will help you decide how hot, cold, wet, or windy it might be!

Date:

Astronomy

Sep. 24, 2011 Rise Set
Actual Time 6:41 AM PDT 6:46 PM PDT
Civil Twilight 6:16 AM PDT 7:10 PM PDT
Nautical Twilight 5:47 AM PDT 7:39 PM PDT
Astronomical Twilight 5:17 AM PDT 8:09 PM PDT
Moon 3:30 AM PDT (9/24) 4:49 PM PDT (9/24)
Length of Visible Light 12h 54m
Length of Day
12h 04m
Waning Crescent, 10% of the Moon is Illuminated
Sep 24
Waning Crescent
Sep 27
New
Oct 3
First Quarter
Oct 11
Full
Oct 19
Last Quarter

Hourly Weather History & Observations

Time (PDT) Temp. Dew Point Humidity Pressure Visibility Wind Dir Wind Speed Gust Speed Precip Events Conditions
1:53 AM 66.0 °F 61.0 °F 84% 29.95 in 6.0 mi South 3.5 mph - N/A   Haze
2:11 AM 66.2 °F 60.8 °F 83% 29.96 in 6.0 mi Calm Calm - N/A   Haze
2:53 AM 66.0 °F 61.0 °F 84% 29.94 in 6.0 mi Calm Calm - N/A   Haze
3:53 AM 66.0 °F 61.0 °F 84% 29.94 in 7.0 mi Calm Calm - N/A   Overcast
4:53 AM 66.0 °F 61.0 °F 84% 29.94 in 8.0 mi South 3.5 mph - N/A   Overcast
5:53 AM 66.0 °F 61.0 °F 84% 29.94 in 8.0 mi Calm Calm - N/A   Overcast
6:53 AM 66.0 °F 61.0 °F 84% 29.96 in 6.0 mi Calm Calm - N/A   Haze
8:53 AM 66.0 °F 61.0 °F 84% 29.98 in 5.0 mi Calm Calm - N/A   Haze
11:45 AM 69.8 °F 60.8 °F 73% 29.99 in 9.0 mi Calm Calm - N/A   Overcast
11:53 AM 68.0 °F 61.0 °F 78% 29.98 in 10.0 mi SSE 3.5 mph - N/A   Overcast
12:53 PM 70.0 °F 61.0 °F 73% 29.97 in 10.0 mi Variable 3.5 mph - N/A   Overcast
1:53 PM 72.0 °F 60.1 °F 66% 29.95 in 10.0 mi SW 4.6 mph - N/A   Mostly Cloudy
2:53 PM 72.0 °F 59.0 °F 64% 29.93 in 10.0 mi Variable 4.6 mph - N/A   Mostly Cloudy
3:02 PM 73.4 °F 59.0 °F 61% 29.93 in 10.0 mi Calm Calm - N/A   Scattered Clouds
3:09 PM 75.2 °F 59.0 °F 57% 29.93 in 10.0 mi Variable 3.5 mph - N/A   Mostly Cloudy
3:25 PM 73.4 °F 59.0 °F 61% 29.92 in 10.0 mi Variable 5.8 mph - N/A   Scattered Clouds
3:53 PM 75.0 °F 59.0 °F 57% 29.92 in 10.0 mi Variable 3.5 mph - N/A   Partly Cloudy
4:53 PM 72.0 °F 60.1 °F 66% 29.91 in 10.0 mi SSW 6.9 mph - N/A   Scattered Clouds
5:08 PM 71.6 °F 60.8 °F 69% 29.92 in 10.0 mi SSW 8.1 mph - N/A   Mostly Cloudy
5:34 PM 71.6 °F 60.8 °F 69% 29.91 in 10.0 mi SSW 9.2 mph - N/A   Scattered Clouds
5:53 PM 69.1 °F 60.1 °F 73% 29.91 in 9.0 mi SSW 6.9 mph - N/A   Partly Cloudy
6:24 PM 69.8 °F 59.0 °F 68% 29.92 in 9.0 mi South 5.8 mph - N/A   Mostly Cloudy
6:53 PM 69.1 °F 59.0 °F 70% 29.91 in 8.0 mi South 4.6 mph - N/A   Overcast
7:53 PM 68.0 °F 59.0 °F 73% 29.93 in 9.0 mi West 5.8 mph - N/A   Overcast
8:53 PM 68.0 °F 57.9 °F 70% 29.94 in 9.0 mi Variable 3.5 mph - N/A   Overcast
9:53 PM 68.0 °F 57.9 °F 70% 29.94 in 9.0 mi Calm Calm - N/A   Overcast
10:53 PM 68.0 °F 59.0 °F 73% 29.95 in 8.0 mi Calm Calm - N/A   Overcast
11:53 PM 66.9 °F 57.9 °F 73% 29.95 in 9.0 mi WNW 3.5 mph - N/A   Overcast